TimeMDT,TemperatureF,Dew PointF,Humidity,Sea Level PressureIn,VisibilityMPH,Wind Direction,Wind SpeedMPH,Gust SpeedMPH,PrecipitationIn,Events,Conditions,WindDirDegrees,DateUTC
12:15 AM,42.8,41.0,93,30.60,-9999.0,WSW,13.8,-,N/A,,Unknown,250,2013-07-29 06:15:00
12:35 AM,42.8,41.0,93,30.59,-9999.0,WSW,13.8,-,N/A,,Unknown,250,2013-07-29 06:35:00
12:55 AM,42.8,41.0,93,30.58,-9999.0,WSW,15.0,-,N/A,,Unknown,250,2013-07-29 06:55:00
1:15 AM,42.8,41.0,93,30.58,-9999.0,WSW,17.3,-,N/A,,Unknown,240,2013-07-29 07:15:00
1:35 AM,42.8,41.0,93,30.58,-9999.0,WSW,16.1,-,N/A,,Unknown,240,2013-07-29 07:35:00
1:55 AM,42.8,42.8,100,30.58,-9999.0,WSW,16.1,-,N/A,,Unknown,240,2013-07-29 07:55:00
2:15 AM,42.8,42.8,100,30.58,-9999.0,West,18.4,-,N/A,,Overcast,270,2013-07-29 08:15:00
2:35 AM,42.8,42.8,100,30.58,-9999.0,West,19.6,-,N/A,,Overcast,270,2013-07-29 08:35:00
2:55 AM,44.6,42.8,93,30.58,-9999.0,WSW,21.9,-,N/A,,Overcast,250,2013-07-29 08:55:00
3:15 AM,44.6,42.8,93,30.57,-9999.0,WSW,21.9,26.5,N/A,,Overcast,250,2013-07-29 09:15:00
3:35 AM,42.8,42.8,100,30.57,-9999.0,West,26.5,-,N/A,Thunderstorm,Thunderstorm,260,2013-07-29 09:35:00
3:55 AM,42.8,41.0,93,30.56,-9999.0,WSW,20.7,27.6,N/A,,Overcast,250,2013-07-29 09:55:00
4:15 AM,42.8,41.0,93,30.56,-9999.0,West,21.9,-,N/A,,Overcast,270,2013-07-29 10:15:00
4:35 AM,42.8,41.0,93,30.58,-9999.0,West,19.6,-,N/A,,Overcast,280,2013-07-29 10:35:00
4:55 AM,42.8,41.0,93,30.58,-9999.0,West,24.2,-,N/A,,Overcast,280,2013-07-29 10:55:00
5:15 AM,42.8,41.0,93,30.58,-9999.0,West,19.6,-,N/A,,Overcast,270,2013-07-29 11:15:00
5:35 AM,42.8,41.0,93,30.58,-9999.0,WNW,17.3,29.9,N/A,,Overcast,290,2013-07-29 11:35:00
5:55 AM,41.0,41.0,100,30.58,-9999.0,West,17.3,25.3,N/A,,Overcast,280,2013-07-29 11:55:00
6:15 AM,41.0,41.0,100,30.59,-9999.0,West,20.7,26.5,N/A,,Overcast,260,2013-07-29 12:15:00
6:35 AM,41.0,41.0,100,30.59,-9999.0,WSW,18.4,27.6,N/A,,Overcast,250,2013-07-29 12:35:00
6:55 AM,42.8,41.0,93,30.59,-9999.0,West,19.6,27.6,N/A,,Overcast,260,2013-07-29 12:55:00
7:15 AM,41.0,41.0,100,30.60,-9999.0,West,17.3,-,N/A,,Overcast,270,2013-07-29 13:15:00
7:35 AM,42.8,41.0,93,30.60,-9999.0,West,19.6,-,N/A,,Overcast,260,2013-07-29 13:35:00
7:55 AM,41.0,41.0,100,30.61,-9999.0,West,21.9,-,N/A,,Overcast,270,2013-07-29 13:55:00
8:15 AM,42.8,41.0,93,30.61,-9999.0,West,23.0,26.5,N/A,,Overcast,260,2013-07-29 14:15:00
8:35 AM,42.8,41.0,93,30.61,-9999.0,West,23.0,28.8,N/A,,Overcast,260,2013-07-29 14:35:00
8:55 AM,42.8,41.0,93,30.62,-9999.0,West,18.4,25.3,N/A,,Overcast,280,2013-07-29 14:55:00
9:15 AM,42.8,41.0,93,30.62,-9999.0,West,23.0,28.8,N/A,,Overcast,260,2013-07-29 15:15:00
9:35 AM,42.8,41.0,93,30.63,-9999.0,West,25.3,29.9,N/A,,Overcast,260,2013-07-29 15:35:00
9:55 AM,42.8,41.0,93,30.63,-9999.0,West,26.5,31.1,N/A,,Overcast,260,2013-07-29 15:55:00
10:15 AM,42.8,42.8,100,30.64,-9999.0,West,23.0,33.4,N/A,,Overcast,270,2013-07-29 16:15:00
10:35 AM,42.8,42.8,100,30.64,-9999.0,West,31.1,36.8,N/A,,Overcast,270,2013-07-29 16:35:00
10:55 AM,44.6,42.8,93,30.65,-9999.0,West,26.5,36.8,N/A,,Overcast,260,2013-07-29 16:55:00
11:15 AM,44.6,42.8,93,30.65,-9999.0,West,31.1,38.0,N/A,,Overcast,260,2013-07-29 17:15:00
11:35 AM,44.6,41.0,87,30.65,-9999.0,West,32.2,41.4,N/A,,Unknown,260,2013-07-29 17:35:00
11:55 AM,46.4,42.8,87,30.66,-9999.0,West,29.9,38.0,N/A,,Overcast,260,2013-07-29 17:55:00
12:15 PM,46.4,42.8,87,30.66,-9999.0,West,28.8,43.7,N/A,,Mostly Cloudy,270,2013-07-29 18:15:00
12:35 PM,48.2,41.0,76,30.67,-9999.0,West,35.7,44.9,N/A,,Mostly Cloudy,270,2013-07-29 18:35:00
12:55 PM,50.0,41.0,71,30.67,-9999.0,WSW,24.2,36.8,N/A,,Overcast,250,2013-07-29 18:55:00
1:15 PM,50.0,41.0,71,30.68,-9999.0,West,23.0,33.4,N/A,,Mostly Cloudy,270,2013-07-29 19:15:00
1:35 PM,46.4,41.0,81,30.69,-9999.0,WNW,19.6,28.8,N/A,,Mostly Cloudy,290,2013-07-29 19:35:00
1:55 PM,46.4,41.0,81,30.69,-9999.0,West,20.7,24.2,N/A,Thunderstorm,Thunderstorm,270,2013-07-29 19:55:00
2:15 PM,51.8,42.8,71,30.69,-9999.0,West,16.1,-,N/A,,Overcast,280,2013-07-29 20:15:00
2:35 PM,50.0,42.8,76,30.69,-9999.0,WNW,19.6,24.2,N/A,Thunderstorm,Thunderstorm,290,2013-07-29 20:35:00
2:55 PM,53.6,41.0,62,30.70,-9999.0,West,25.3,32.2,N/A,,Scattered Clouds,270,2013-07-29 20:55:00
3:15 PM,53.6,41.0,62,30.69,-9999.0,West,25.3,29.9,N/A,,Scattered Clouds,270,2013-07-29 21:15:00
3:35 PM,53.6,37.4,54,30.69,-9999.0,West,34.5,39.1,N/A,,Scattered Clouds,270,2013-07-29 21:35:00
3:55 PM,53.6,39.2,58,30.69,-9999.0,West,31.1,39.1,N/A,,Scattered Clouds,270,2013-07-29 21:55:00
4:15 PM,53.6,41.0,62,30.69,-9999.0,West,26.5,35.7,N/A,,Scattered Clouds,260,2013-07-29 22:15:00
4:35 PM,55.4,41.0,58,30.69,-9999.0,West,28.8,39.1,N/A,,Scattered Clouds,280,2013-07-29 22:35:00
4:55 PM,53.6,39.2,58,30.70,-9999.0,West,25.3,38.0,N/A,,Mostly Cloudy,260,2013-07-29 22:55:00
5:15 PM,51.8,41.0,67,30.70,-9999.0,West,25.3,35.7,N/A,,Overcast,280,2013-07-29 23:15:00
5:35 PM,51.8,41.0,67,30.71,-9999.0,West,31.1,38.0,N/A,,Overcast,260,2013-07-29 23:35:00
5:55 PM,50.0,41.0,71,30.71,-9999.0,West,19.6,29.9,N/A,,Mostly Cloudy,260,2013-07-29 23:55:00
6:15 PM,51.8,42.8,71,30.70,-9999.0,West,26.5,35.7,N/A,,Mostly Cloudy,260,2013-07-30 00:15:00
6:35 PM,50.0,41.0,71,30.71,-9999.0,West,20.7,29.9,N/A,,Mostly Cloudy,270,2013-07-30 00:35:00
6:55 PM,50.0,39.2,66,30.71,-9999.0,WSW,18.4,28.8,N/A,,Mostly Cloudy,250,2013-07-30 00:55:00
7:15 PM,50.0,41.0,71,30.72,-9999.0,WSW,18.4,26.5,N/A,,Mostly Cloudy,250,2013-07-30 01:15:00
7:35 PM,50.0,41.0,71,30.71,-9999.0,WSW,17.3,24.2,N/A,Thunderstorm,Thunderstorm,250,2013-07-30 01:35:00
7:55 PM,48.2,39.2,71,30.73,-9999.0,West,27.6,33.4,N/A,,Mostly Cloudy,280,2013-07-30 01:55:00
8:15 PM,46.4,39.2,76,30.74,-9999.0,West,23.0,-,N/A,,Scattered Clouds,260,2013-07-30 02:15:00
8:35 PM,46.4,39.2,76,30.74,-9999.0,West,18.4,27.6,N/A,Thunderstorm,Thunderstorm,260,2013-07-30 02:35:00
8:55 PM,41.0,37.4,87,30.73,-9999.0,North,-9999.0,-,N/A,Thunderstorm,Thunderstorm,0,2013-07-30 02:55:00
9:15 PM,37.4,35.6,93,30.78,-9999.0,WNW,28.8,-,N/A,Thunderstorm,Thunderstorm,290,2013-07-30 03:15:00
9:35 PM,37.4,35.6,93,30.75,-9999.0,WNW,24.2,-,N/A,Thunderstorm,Thunderstorm,300,2013-07-30 03:35:00
9:55 PM,37.4,35.6,93,30.79,-9999.0,NW,13.8,25.3,N/A,,Unknown,320,2013-07-30 03:55:00
10:15 PM,37.4,35.6,93,30.83,-9999.0,West,21.9,-,N/A,,Unknown,280,2013-07-30 04:15:00
10:35 PM,39.2,35.6,87,30.76,-9999.0,West,24.2,-,N/A,,Unknown,280,2013-07-30 04:35:00
10:55 PM,39.2,35.6,87,30.76,-9999.0,West,24.2,-,N/A,,Unknown,280,2013-07-30 04:55:00
11:15 PM,39.2,35.6,87,30.76,-9999.0,West,21.9,-,N/A,,Unknown,280,2013-07-30 05:15:00
11:35 PM,41.0,35.6,81,30.76,-9999.0,West,23.0,-,N/A,,Clear,280,2013-07-30 05:35:00
11:55 PM,41.0,35.6,81,30.77,-9999.0,West,21.9,-,N/A,,Clear,280,2013-07-30 05:55:00